TimeEST,TemperatureF,Dew PointF,Humidity,Sea Level PressureIn,VisibilityMPH,Wind Direction,Wind SpeedMPH,Gust SpeedMPH,PrecipitationIn,Events,Conditions,WindDirDegrees,DateUTC
12:56 AM,41.0,35.6,81,30.11,10.0,Calm,Calm,-,N/A,,Clear,0,2011-11-26 05:56:00
1:56 AM,42.1,34.0,73,30.12,10.0,Calm,Calm,-,N/A,,Clear,0,2011-11-26 06:56:00
2:56 AM,41.0,34.0,76,30.14,10.0,Calm,Calm,-,N/A,,Clear,0,2011-11-26 07:56:00
3:56 AM,39.0,33.1,79,30.14,10.0,Calm,Calm,-,N/A,,Clear,0,2011-11-26 08:56:00
4:56 AM,39.9,33.1,77,30.14,10.0,Calm,Calm,-,N/A,,Clear,0,2011-11-26 09:56:00
5:56 AM,39.9,33.1,77,30.16,10.0,Calm,Calm,-,N/A,,Clear,0,2011-11-26 10:56:00
6:56 AM,39.9,32.0,73,30.17,10.0,NNW,3.5,-,N/A,,Scattered Clouds,330,2011-11-26 11:56:00
7:56 AM,39.0,34.0,82,30.19,10.0,WNW,3.5,-,N/A,,Clear,300,2011-11-26 12:56:00
8:56 AM,51.1,33.1,50,30.20,10.0,West,4.6,-,N/A,,Clear,260,2011-11-26 13:56:00
9:56 AM,54.0,32.0,43,30.22,10.0,West,5.8,-,N/A,,Clear,260,2011-11-26 14:56:00
10:56 AM,57.9,32.0,37,30.21,10.0,West,4.6,-,N/A,,Clear,270,2011-11-26 15:56:00
11:56 AM,62.1,30.9,31,30.19,10.0,West,6.9,-,N/A,,Clear,270,2011-11-26 16:56:00
12:56 PM,61.0,33.1,35,30.17,10.0,WNW,6.9,-,N/A,,Clear,300,2011-11-26 17:56:00
1:56 PM,63.0,33.1,33,30.16,10.0,West,8.1,-,N/A,,Clear,280,2011-11-26 18:56:00
2:56 PM,63.0,34.0,34,30.16,10.0,West,3.5,-,N/A,,Clear,270,2011-11-26 19:56:00
3:56 PM,57.2,35.6,44,30.17,10.0,Calm,Calm,-,N/A,,Mostly Cloudy,0,2011-11-26 20:56:00
4:56 PM,55.9,34.0,44,30.19,10.0,Calm,Calm,-,N/A,,Clear,0,2011-11-26 21:56:00
5:56 PM,50.0,35.1,57,30.19,10.0,Calm,Calm,-,N/A,,Clear,0,2011-11-26 22:56:00
6:56 PM,51.1,34.0,52,30.20,10.0,South,3.5,-,N/A,,Clear,190,2011-11-26 23:56:00
7:56 PM,48.9,36.0,61,30.21,10.0,Calm,Calm,-,N/A,,Clear,0,2011-11-27 00:56:00
8:56 PM,45.0,39.0,80,30.21,10.0,West,3.5,-,N/A,,Clear,270,2011-11-27 01:56:00
9:56 PM,45.0,39.0,80,30.20,10.0,West,3.5,-,N/A,,Clear,260,2011-11-27 02:56:00
10:56 PM,42.1,37.0,82,30.20,10.0,WNW,8.1,-,N/A,,Clear,300,2011-11-27 03:56:00
11:56 PM,42.1,36.0,79,30.18,10.0,NW,4.6,-,N/A,,Clear,310,2011-11-27 04:56:00